Location: Carella
(45.8167°N, 9.2667°E)
Time: 01:02:45
(UTC+00:00)

Aureole 1 Rocket - Pass Details

Date: 30 March 2020
Orbit: 379 x 1379 km, 73.9° (Epoch: 30 May)

Event Time Altitude Azimuth Distance (km) Brightness Sun altitude
Exits shadow 20:59:53 48° 205° (SSW) 1,549 4.8 -30.3°
Maximum altitude 21:02:21 86° 290° (WNW) 1,174 4.3 -30.5°
Drops below altitude 10° 21:08:59 10° 21° (NNE) 2,749 6.6 -31.3°
Sets 21:11:16 0° 22° (NNE) 3,563 7.3 -31.6°
